[[{"header":{"parameterUnit":"m.s-1","parameterCategory":1,"la1":30.2991,"la2":30.254,"lo1":-89.0895,"lo2":-89.0444,"dy":0.0017,"dx":0.0017,"nx":28,"ny":28,"refTime":"2024-07-01T21:00:00:Z","depth":0,"parameterNumber":2,"parameterNumberName":"U-component_of_WINDS"},"data":[0,0,0,0,0,0,0,0,0,0,0,0,0,0,0,0,0,0,0,0,0,0,0,0,0,0,0,0,0,0,0,0,0,0,0,0,0,0,0,0,0,0,0,0,0,0,0,0,0,0,0,0,0,0,0,0,0,0,-0.9981,-0.9981,0,-0.997,-0.997,-0.997,-0.9973,-0.9973,-0.9974,-0.9974,-0.996,-0.9959,-0.9959,0,0,0,0,0,0,0,0,0,0,0,0,0,-1.0006,-1.0005,-0.9981,-0.9981,-0.9981,-0.997,-0.997,-0.997,-0.9973,-0.9973,-0.9974,-0.9974,-0.996,-0.996,-0.9959,0,0,0,0,0,0,0,0,0,0,0,0,0,-0.9995,-1.0005,-0.9981,-0.9981,-0.9981,-0.997,-0.997,-0.997,-0.9973,-0.9973,-0.9974,-0.9974,-0.996,-0.996,-0.9959,-0.9946,0,0,-0.9956,-0.9956,0,0,0,0,0,0,0,0,-0.9995,-0.9994,-0.9981,-0.9981,-0.9981,-0.9973,-0.9973,-0.9962,-0.9973,-0.9976,-0.9974,-0.9974,-0.9964,-0.9963,-0.996,-0.9945,-0.9945,-0.9956,-0.9955,-0.9955,-0.9955,0,0,0,0,0,0,0,-0.9996,-0.9994,-0.9977,-0.9981,-0.9981,-0.9982,-0.9981,-0.9971,-0.9968,-0.9976,-0.9976,-0.9975,-0.9964,-0.9961,-0.996,-0.9944,-0.9956,-0.9955,-0.9955,-0.9954,-0.9921,-0.9921,0,0,0,0,0,0,-0.9997,-0.9995,-0.9977,-0.9976,-0.9989,-0.9981,-0.998,-0.9975,-0.9968,-0.9967,-0.9975,-0.9975,-0.9962,-0.9961,-0.9959,-0.9945,-0.9955,-0.9954,-0.9954,-0.9922,-0.9921,-0.9921,0,0,0,0,0,0,-0.9997,-0.9995,-0.9977,-0.9986,-0.9983,-0.998,-0.9975,-0.9975,-0.9972,-0.9967,-0.9967,-0.9972,-0.9962,-0.996,-0.995,-0.9945,-0.9954,-0.9953,-0.9922,-0.9922,-0.9921,-0.9916,0,0,0,0,0,0,-0.9998,-0.9995,-0.999,-0.9986,-0.9983,-0.9968,-0.9975,-0.9975,-0.9971,-0.9971,-0.9964,-0.9964,-0.9962,-0.9951,-0.9949,-0.9944,-0.9952,-0.9923,-0.9922,-0.9921,-0.9917,-0.9915,-0.9914,0,0,0,0,0,-0.9999,-0.9988,-0.999,-0.9988,-0.9977,-0.9968,-0.9967,-0.9966,-0.997,-0.9965,-0.9963,-0.9964,-0.9946,-0.995,-0.9948,-0.9942,-0.9923,-0.9922,-0.9921,-0.9917,-0.9916,-0.9914,0,0,0,0,0,0,-0.9991,-0.9988,-0.9989,-0.9977,-0.9973,-0.9969,-0.9962,-0.9964,-0.9958,-0.9959,-0.9958,-0.9956,-0.9946,-0.9943,-0.9948,-0.993,-0.9935,-0.9934,-0.9933,-0.9931,-0.993,-0.9931,-0.9952,0,0,0,0,0,-0.9988,-0.9982,-0.9979,-0.9968,-0.9966,-0.9965,-0.9961,-0.9961,-0.9957,-0.9955,-0.9951,-0.9946,-0.994,-0.9935,-0.9929,-0.9917,-0.9916,-0.9912,-0.991,-0.991,-0.9908,-0.9903,-0.9902,-0.9918,-0.9918,-0.9918,0,0,-0.9981,-0.9979,-0.9974,-0.9967,-0.9963,-0.9957,-0.9963,-0.9955,-0.9951,-0.9953,-0.9944,-0.9941,-0.9936,-0.9925,-0.992,-0.9922,-0.9904,-0.9909,-0.9908,-0.9907,-0.9903,-0.9901,-0.99,-0.9918,-0.9918,-0.9918,0,0,-0.9966,-0.9963,-0.9955,-0.9952,-0.9948,-0.9948,-0.9946,-0.9942,-0.9941,-0.9932,-0.9934,-0.9929,-0.9917,-0.9914,-0.991,-0.9897,-0.9899,-0.9895,-0.9889,-0.9884,-0.9883,-0.9882,-0.9878,-0.9877,-0.9894,-0.9894,-0.9894,0,-0.9958,-0.9948,-0.995,-0.9943,-0.994,-0.9944,-0.9936,-0.9933,-0.9927,-0.9925,-0.9928,-0.9915,-0.9911,-0.9901,-0.9898,-0.9895,-0.9893,-0.9896,-0.9883,-0.9882,-0.9881,-0.9878,-0.9876,-0.9894,-0.9894,-0.9894,-0.9894,0,-0.9939,-0.9933,-0.9927,-0.9923,-0.9919,-0.9912,-0.9912,-0.9909,-0.991,-0.991,-0.9901,-0.9898,-0.9892,-0.9889,-0.9889,-0.9879,-0.9881,-0.9884,-0.9888,-0.9879,-0.9876,-0.9874,-0.9893,-0.9894,-0.9894,-0.9894,0,0,-0.9916,-0.9915,-0.9913,-0.9912,-0.9909,-0.9905,-0.9898,-0.9894,-0.9891,-0.9887,-0.9882,-0.9874,-0.9877,-0.9874,-0.9874,-0.987,-0.9862,-0.9873,-0.9873,-0.9872,-0.9852,-0.985,-0.9848,-0.9863,-0.9863,-0.9862,-0.9852,0,-0.9901,-0.989,-0.9893,-0.9882,-0.9878,-0.9883,-0.9877,-0.9875,-0.9875,-0.9871,-0.9871,-0.9865,-0.987,-0.9868,-0.9864,-0.9863,-0.9857,-0.9864,-0.9858,-0.9858,-0.9859,-0.9846,-0.9844,-0.9834,-0.9851,-0.9851,-0.985,0,-0.9882,-0.9879,-0.9869,-0.9869,-0.9867,-0.9862,-0.986,-0.9856,-0.9854,-0.9854,-0.9852,-0.9854,-0.9849,-0.9854,-0.9847,-0.9851,-0.9849,-0.9849,-0.9849,-0.9848,-0.9853,-0.9845,-0.9831,-0.9829,-0.9848,-0.9848,-0.9849,0,-0.9867,-0.9861,-0.9855,-0.9854,-0.9854,-0.985,-0.985,-0.9849,-0.9847,-0.9845,-0.9844,-0.984,-0.9838,-0.9836,-0.9837,-0.9841,-0.983,-0.9835,-0.9831,-0.9831,-0.9827,-0.9827,-0.9813,-0.9826,-0.9826,-0.9826,-0.9826,0,-0.985,-0.9843,-0.9849,-0.9844,-0.9838,-0.9841,-0.9835,-0.9835,-0.9835,-0.9831,-0.9835,-0.9831,-0.9834,-0.9831,-0.9832,-0.9826,-0.9825,-0.9826,-0.9826,-0.9825,-0.9825,-0.9823,-0.9824,-0.9826,-0.9826,-0.9826,-0.9826,0,-0.9832,-0.9835,-0.9829,-0.983,-0.9831,-0.9826,-0.9827,-0.9824,-0.9825,-0.9821,-0.982,-0.9822,-0.9819,-0.9821,-0.9817,-0.9818,-0.9811,-0.9812,-0.9812,-0.9812,-0.9807,-0.9808,-0.9791,-0.9789,-0.9804,-0.9803,-0.9803,0,-0.9821,-0.9816,-0.9819,-0.9817,-0.9817,-0.9814,-0.9813,-0.9817,-0.9815,-0.9815,-0.9812,-0.9809,-0.9808,-0.9802,-0.9803,-0.9801,-0.9802,-0.9797,-0.9802,-0.9802,-0.9803,-0.9803,-0.9803,-0.9795,-0.9795,-0.9795,-0.9795,0,-0.9801,-0.9804,-0.9802,-0.9801,-0.98,-0.9799,-0.9799,-0.9798,-0.9802,-0.98,-0.9798,-0.9797,-0.9794,-0.9792,-0.9791,-0.979,-0.9794,-0.9794,-0.9792,-0.9791,-0.9792,-0.9792,-0.9809,-0.9794,-0.9794,-0.9794,-0.9794,-0.9794,-0.9787,-0.9784,-0.9786,-0.9784,-0.9785,-0.9785,-0.9783,-0.9785,-0.9783,-0.9782,-0.9785,-0.9782,-0.9783,-0.9782,-0.9782,-0.978,-0.9782,-0.978,-0.978,-0.9779,-0.9779,-0.9793,-0.9779,-0.9779,-0.978,-0.978,-0.978,0,-0.9768,-0.977,-0.9769,-0.9769,-0.9769,-0.9773,-0.9774,-0.9773,-0.9771,-0.9772,-0.9771,-0.9769,-0.9768,-0.977,-0.9769,-0.9767,-0.9768,-0.9767,-0.9767,-0.9767,-0.9777,-0.9778,-0.9765,-0.9765,-0.9765,-0.9765,-0.9765,-0.9765,-0.9758,-0.9754,-0.9757,-0.9754,-0.9756,-0.9754,-0.9754,-0.9755,-0.9756,-0.9754,-0.9754,-0.9756,-0.9757,-0.9757,-0.9756,-0.9757,-0.9757,-0.9754,-0.9756,-0.9764,-0.9766,-0.9767,-0.9768,-0.9754,-0.9754,-0.9746,-0.9746,-0.9746]},{"header":{"parameterUnit":"m.s-1","parameterCategory":1,"la1":30.2991,"la2":30.254,"lo1":-89.0895,"lo2":-89.0444,"dy":0.0017,"dx":0.0017,"nx":28,"ny":28,"refTime":"2024-07-01T21:00:00:Z","depth":0,"parameterNumber":3,"parameterNumberName":"V-component_of_WINDS"},"data":[0,0,0,0,0,0,0,0,0,0,0,0,0,0,0,0,0,0,0,0,0,0,0,0,0,0,0,0,0,0,0,0,0,0,0,0,0,0,0,0,0,0,0,0,0,0,0,0,0,0,0,0,0,0,0,0,0,0,4.1889,4.1888,0,4.1857,4.1857,4.1857,4.1846,4.1846,4.1846,4.1846,4.1809,4.1808,4.1807,0,0,0,0,0,0,0,0,0,0,0,0,0,4.1936,4.1935,4.1889,4.1888,4.1888,4.1857,4.1857,4.1856,4.1846,4.1846,4.1846,4.1846,4.1809,4.1808,4.1807,0,0,0,0,0,0,0,0,0,0,0,0,0,4.1911,4.1934,4.1889,4.1879,4.1878,4.1857,4.1857,4.1856,4.1846,4.1846,4.1846,4.1846,4.181,4.1808,4.1806,4.1792,0,0,4.1801,4.18,0,0,0,0,0,0,0,0,4.1912,4.1909,4.1881,4.188,4.1878,4.1856,4.186,4.1834,4.1846,4.1858,4.1846,4.1847,4.1824,4.1821,4.1815,4.179,4.1788,4.1801,4.18,4.1799,4.1799,0,0,0,0,0,0,0,4.1914,4.191,4.1876,4.188,4.1879,4.1875,4.1872,4.1855,4.184,4.1857,4.1856,4.1853,4.1823,4.1816,4.1814,4.1788,4.1801,4.18,4.1799,4.1798,4.175,4.175,0,0,0,0,0,0,4.1918,4.1912,4.1877,4.1875,4.1896,4.1874,4.187,4.1863,4.184,4.1837,4.1853,4.1852,4.1819,4.1816,4.1812,4.1794,4.1799,4.1798,4.1797,4.175,4.175,4.175,0,0,0,0,0,0,4.1919,4.1915,4.1878,4.1893,4.1888,4.1873,4.1865,4.1862,4.1855,4.1837,4.1834,4.1848,4.1819,4.1815,4.1797,4.1793,4.1797,4.1795,4.1751,4.175,4.175,4.1757,0,0,0,0,0,0,4.192,4.1915,4.191,4.1893,4.1888,4.1865,4.1864,4.1861,4.1853,4.1852,4.1832,4.1829,4.1819,4.18,4.1796,4.179,4.1794,4.1751,4.175,4.175,4.1757,4.1757,4.1757,0,0,0,0,0,4.1922,4.1912,4.191,4.1906,4.1881,4.1865,4.1862,4.1852,4.1852,4.1847,4.1835,4.183,4.1794,4.1798,4.1793,4.1787,4.1751,4.1751,4.175,4.1757,4.1757,4.1757,0,0,0,0,0,0,4.1927,4.191,4.1907,4.1892,4.1881,4.1863,4.1856,4.1852,4.1838,4.1838,4.1824,4.182,4.1804,4.1794,4.1799,4.1772,4.1772,4.1771,4.178,4.1779,4.1779,4.1782,4.1793,0,0,0,0,0,4.1927,4.1917,4.1901,4.189,4.1884,4.1871,4.1864,4.1857,4.1844,4.1838,4.1825,4.1811,4.1797,4.1787,4.1773,4.1756,4.1751,4.175,4.1749,4.1749,4.1748,4.1739,4.1738,4.1748,4.1748,4.1748,0,0,4.1926,4.1915,4.1909,4.189,4.1881,4.1869,4.1867,4.1854,4.1845,4.1836,4.1819,4.1809,4.1793,4.1776,4.1768,4.1767,4.1744,4.1749,4.1749,4.1747,4.1738,4.1737,4.1736,4.1747,4.1748,4.1748,0,0,4.1918,4.1909,4.1898,4.1889,4.1875,4.1867,4.1864,4.1848,4.1842,4.1826,4.1818,4.1807,4.1782,4.1771,4.1762,4.1751,4.1745,4.1747,4.1745,4.1737,4.1736,4.1735,4.1731,4.173,4.1745,4.1745,4.1745,0,4.1917,4.1901,4.1893,4.1881,4.1873,4.1866,4.1855,4.1846,4.1827,4.1821,4.1821,4.1791,4.1779,4.176,4.1758,4.1751,4.1747,4.1748,4.1737,4.1736,4.1735,4.1731,4.173,4.1746,4.1746,4.1746,4.1746,0,4.1901,4.189,4.1883,4.1868,4.1859,4.1847,4.1837,4.1828,4.1823,4.1815,4.1798,4.1784,4.1767,4.1762,4.1756,4.1742,4.1742,4.174,4.1739,4.1735,4.1731,4.1729,4.1746,4.1746,4.1746,4.1746,0,0,4.1894,4.1876,4.1874,4.1867,4.1851,4.1842,4.183,4.1816,4.1809,4.1796,4.1786,4.1766,4.1764,4.1754,4.1746,4.1739,4.1732,4.1737,4.1737,4.1737,4.1716,4.1718,4.1716,4.1728,4.1728,4.1727,4.1717,0,4.1884,4.1865,4.1858,4.1841,4.1831,4.1825,4.1814,4.1803,4.1795,4.1784,4.1774,4.1761,4.1759,4.1753,4.1745,4.1734,4.1727,4.1735,4.1717,4.1716,4.1721,4.1714,4.1716,4.1707,4.1716,4.1715,4.1715,0,4.187,4.1859,4.1842,4.1829,4.1825,4.1816,4.1802,4.1792,4.1779,4.1774,4.1764,4.1757,4.1744,4.1745,4.1726,4.1731,4.1723,4.1717,4.1716,4.1714,4.1715,4.1711,4.1704,4.1702,4.1713,4.1713,4.1713,0,4.1867,4.1848,4.1836,4.183,4.1815,4.1809,4.1802,4.1789,4.1781,4.1769,4.1764,4.1749,4.1741,4.173,4.172,4.1721,4.1702,4.1702,4.1696,4.1696,4.1691,4.1692,4.1682,4.1687,4.1687,4.1687,4.1687,0,4.1856,4.1846,4.1835,4.1827,4.1816,4.1807,4.1795,4.1788,4.1777,4.1767,4.176,4.175,4.1737,4.1726,4.1717,4.1703,4.1699,4.1694,4.1692,4.1694,4.1695,4.1689,4.1689,4.1687,4.1687,4.1687,4.1687,0,4.185,4.1843,4.1829,4.1816,4.1813,4.1805,4.1793,4.1785,4.1777,4.1765,4.1761,4.1748,4.1735,4.1724,4.1705,4.1699,4.1684,4.1682,4.1689,4.1688,4.1683,4.1684,4.1669,4.1666,4.1673,4.1673,4.1673,0,4.1844,4.1836,4.1823,4.1817,4.1811,4.18,4.1793,4.1785,4.1777,4.1762,4.1756,4.1742,4.1731,4.1709,4.1697,4.1683,4.168,4.1676,4.1678,4.1681,4.168,4.1681,4.168,4.1676,4.1676,4.1676,4.1675,0,4.1833,4.183,4.1821,4.181,4.1802,4.1793,4.1783,4.1778,4.1767,4.1759,4.1746,4.1738,4.172,4.1706,4.1691,4.1682,4.1677,4.1675,4.1673,4.1676,4.1681,4.1678,4.1689,4.1675,4.1675,4.1675,4.1675,4.1675,4.1827,4.182,4.1811,4.18,4.1793,4.1784,4.1777,4.1769,4.1758,4.1745,4.174,4.1727,4.1714,4.1694,4.1685,4.1674,4.1673,4.167,4.1669,4.1669,4.1669,4.1683,4.1671,4.1671,4.1671,4.1671,4.1671,0,4.1816,4.181,4.1801,4.1789,4.1781,4.1779,4.1768,4.1761,4.175,4.174,4.173,4.1715,4.1702,4.169,4.1676,4.167,4.1667,4.1666,4.1666,4.1664,4.1671,4.1674,4.1669,4.1669,4.1669,4.1669,4.1669,4.1669,4.181,4.1798,4.1795,4.1779,4.1773,4.1761,4.1756,4.1748,4.174,4.1724,4.1714,4.1707,4.1696,4.1682,4.167,4.1667,4.1662,4.1662,4.1658,4.1664,4.1664,4.1664,4.1667,4.1661,4.1661,4.1652,4.1652,4.1652]}]]